contact:dominique.lefevre@mio.osupytheas.fr, maurice.libes@osupytheas.fr, didier.mallarino@osupytheas.fr
Project:EMSO http://www.emso-fr.org/EMSO-France
Depth: 2436.0 m
Title:EMSO Ligure Ouest : Data MII capteur MICROCAT
DateTime_Computer,Latitude,Longitude,Temperature,Conductivity,Pressure,DateTime_Instrument
DateTime_Computer,Latitude,Longitude,degC,S m-1,dbar,DateTime_Instrument
2019-12-05T00:01:34Z,42.805,6.029,13.2998,4.60020,2470.063,2019-12-05T02:02:03Z
2019-12-05T00:04:37Z,42.805,6.029,13.3001,4.60011,2470.1,2019-12-05T02:05:07Z
2019-12-05T00:07:40Z,42.805,6.029,13.2991,4.59995,2470.04,2019-12-05T02:08:10Z
2019-12-05T00:10:44Z,42.805,6.029,13.3007,4.59972,2470.077,2019-12-05T02:11:13Z
2019-12-05T00:13:47Z,42.805,6.029,13.2988,4.59973,2470.053,2019-12-05T02:14:16Z
2019-12-05T00:16:50Z,42.805,6.029,13.2990,4.59992,2470.077,2019-12-05T02:17:19Z
2019-12-05T00:19:53Z,42.805,6.029,13.2976,4.60029,2470.063,2019-12-05T02:20:22Z
2019-12-05T00:22:56Z,42.805,6.029,13.3018,4.60069,2470.063,2019-12-05T02:23:26Z
2019-12-05T00:26:00Z,42.805,6.029,13.3039,4.60067,2470.077,2019-12-05T02:26:29Z
2019-12-05T00:29:03Z,42.805,6.029,13.3039,4.60031,2470.03,2019-12-05T02:29:32Z
2019-12-05T00:32:06Z,42.805,6.029,13.2999,4.60029,2470.077,2019-12-05T02:32:36Z
2019-12-05T00:35:10Z,42.805,6.029,13.3005,4.60028,2470.1,2019-12-05T02:35:39Z
2019-12-05T00:38:13Z,42.805,6.029,13.2981,4.60042,2470.1,2019-12-05T02:38:42Z
2019-12-05T00:41:16Z,42.805,6.029,13.2985,4.60010,2470.087,2019-12-05T02:41:45Z
2019-12-05T00:44:19Z,42.805,6.029,13.3007,4.60019,2470.04,2019-12-05T02:44:48Z
2019-12-05T00:47:22Z,42.805,6.029,13.3000,4.60031,2470.087,2019-12-05T02:47:52Z
2019-12-05T00:50:25Z,42.805,6.029,13.2991,4.60039,2470.1,2019-12-05T02:50:55Z
2019-12-05T00:53:29Z,42.805,6.029,13.2984,4.60042,2470.053,2019-12-05T02:53:58Z
2019-12-05T00:56:32Z,42.805,6.029,13.2996,4.60026,2470.1,2019-12-05T02:57:01Z
2019-12-05T00:59:35Z,42.805,6.029,13.2982,4.60057,2470.063,2019-12-05T03:00:04Z
2019-12-05T01:02:38Z,42.805,6.029,13.3005,4.60042,2470.063,2019-12-05T03:03:08Z
2019-12-05T01:05:41Z,42.805,6.029,13.3000,4.60009,2470.04,2019-12-05T03:06:11Z
2019-12-05T01:08:45Z,42.805,6.029,13.3011,4.60027,2470.04,2019-12-05T03:09:14Z
2019-12-05T01:11:48Z,42.805,6.029,13.2997,4.60010,2470.063,2019-12-05T03:12:17Z
2019-12-05T01:14:51Z,42.805,6.029,13.2976,4.60034,2470.1,2019-12-05T03:15:20Z
2019-12-05T01:17:54Z,42.805,6.029,13.2968,4.60069,2470.087,2019-12-05T03:18:23Z
2019-12-05T01:20:57Z,42.805,6.029,13.2986,4.60031,2470.04,2019-12-05T03:21:27Z
2019-12-05T01:24:00Z,42.805,6.029,13.2982,4.60034,2470.053,2019-12-05T03:24:30Z
2019-12-05T01:27:04Z,42.805,6.029,13.2978,4.60029,2470.053,2019-12-05T03:27:33Z
2019-12-05T01:30:07Z,42.805,6.029,13.2971,4.60011,2470.077,2019-12-05T03:30:36Z
2019-12-05T01:33:10Z,42.805,6.029,13.2977,4.60042,2470.077,2019-12-05T03:33:39Z
2019-12-05T01:36:13Z,42.805,6.029,13.2990,4.59985,2470.053,2019-12-05T03:36:43Z
2019-12-05T01:39:16Z,42.805,6.029,13.2982,4.59996,2470.077,2019-12-05T03:39:46Z
2019-12-05T01:42:20Z,42.805,6.029,13.2974,4.60026,2470.04,2019-12-05T03:42:49Z
2019-12-05T01:45:23Z,42.805,6.029,13.2994,4.59996,2470.04,2019-12-05T03:45:52Z
2019-12-05T01:48:26Z,42.805,6.029,13.2974,4.60006,2470.087,2019-12-05T03:48:55Z
2019-12-05T01:51:29Z,42.805,6.029,13.2996,4.60008,2470.063,2019-12-05T03:51:58Z
2019-12-05T01:54:32Z,42.805,6.029,13.2991,4.60023,2470.053,2019-12-05T03:55:02Z
2019-12-05T01:57:36Z,42.805,6.029,13.2980,4.60030,2470.053,2019-12-05T03:58:05Z
2019-12-05T02:00:39Z,42.805,6.029,13.2972,4.60029,2470.087,2019-12-05T04:01:08Z
2019-12-05T02:03:42Z,42.805,6.029,13.2972,4.60028,2470.077,2019-12-05T04:04:11Z
2019-12-05T02:06:45Z,42.805,6.029,13.2970,4.60008,2470.077,2019-12-05T04:07:15Z
2019-12-05T02:09:48Z,42.805,6.029,13.2974,4.59974,2470.1,2019-12-05T04:10:18Z
2019-12-05T02:12:52Z,42.805,6.029,13.2991,4.60017,2470.1,2019-12-05T04:13:21Z
2019-12-05T02:15:55Z,42.805,6.029,13.2972,4.60009,2470.053,2019-12-05T04:16:24Z
2019-12-05T02:18:58Z,42.805,6.029,13.2981,4.60021,2470.063,2019-12-05T04:19:27Z
2019-12-05T02:22:01Z,42.805,6.029,13.2981,4.60023,2470.04,2019-12-05T04:22:30Z
2019-12-05T02:25:04Z,42.805,6.029,13.2992,4.60042,2470.063,2019-12-05T04:25:34Z
2019-12-05T02:28:08Z,42.805,6.029,13.2983,4.60026,2470.063,2019-12-05T04:28:37Z
2019-12-05T02:31:11Z,42.805,6.029,13.2983,4.60025,2470.063,2019-12-05T04:31:40Z
2019-12-05T02:34:14Z,42.805,6.029,13.2968,4.59996,2470.063,2019-12-05T04:34:43Z
2019-12-05T02:37:17Z,42.805,6.029,13.2967,4.60003,2470.04,2019-12-05T04:37:47Z
2019-12-05T02:40:20Z,42.805,6.029,13.2974,4.59994,2470.063,2019-12-05T04:40:50Z
2019-12-05T02:43:24Z,42.805,6.029,13.2974,4.60017,2470.063,2019-12-05T04:43:53Z
2019-12-05T02:46:27Z,42.805,6.029,13.2968,4.60009,2470.077,2019-12-05T04:46:56Z
2019-12-05T02:49:30Z,42.805,6.029,13.2976,4.60020,2470.04,2019-12-05T04:49:59Z
2019-12-05T02:52:33Z,42.805,6.029,13.2973,4.60017,2470.04,2019-12-05T04:53:02Z
2019-12-05T02:55:36Z,42.805,6.029,13.2976,4.60021,2470.063,2019-12-05T04:56:06Z
2019-12-05T02:58:40Z,42.805,6.029,13.2971,4.59996,2470.077,2019-12-05T04:59:09Z
2019-12-05T03:01:43Z,42.805,6.029,13.2982,4.60015,2470.073,2019-12-05T05:02:12Z
2019-12-05T03:04:46Z,42.805,6.029,13.2979,4.59995,2470.077,2019-12-05T05:05:15Z
2019-12-05T03:07:49Z,42.805,6.029,13.2976,4.60029,2470.04,2019-12-05T05:08:18Z
2019-12-05T03:10:52Z,42.805,6.029,13.2976,4.60029,2470.063,2019-12-05T05:11:22Z
2019-12-05T03:13:55Z,42.805,6.029,13.2977,4.60009,2470.053,2019-12-05T05:14:25Z
2019-12-05T03:16:59Z,42.805,6.029,13.2983,4.60002,2470.077,2019-12-05T05:17:28Z
2019-12-05T03:20:02Z,42.805,6.029,13.2973,4.60022,2470.04,2019-12-05T05:20:31Z
2019-12-05T03:23:05Z,42.805,6.029,13.2980,4.60011,2470.04,2019-12-05T05:23:34Z
2019-12-05T03:26:08Z,42.805,6.029,13.2974,4.60001,2470.063,2019-12-05T05:26:37Z
2019-12-05T03:29:11Z,42.805,6.029,13.2977,4.59999,2470.04,2019-12-05T05:29:41Z
2019-12-05T03:32:15Z,42.805,6.029,13.2984,4.60001,2470.053,2019-12-05T05:32:44Z
2019-12-05T03:35:18Z,42.805,6.029,13.2976,4.60015,2470.053,2019-12-05T05:35:47Z
2019-12-05T03:38:21Z,42.805,6.029,13.2969,4.60006,2470.053,2019-12-05T05:38:50Z
2019-12-05T03:41:24Z,42.805,6.029,13.2968,4.59991,2470.087,2019-12-05T05:41:53Z
2019-12-05T03:44:27Z,42.805,6.029,13.2968,4.60003,2470.077,2019-12-05T05:44:57Z
2019-12-05T03:47:31Z,42.805,6.029,13.2971,4.59999,2470.063,2019-12-05T05:48:00Z
2019-12-05T03:50:34Z,42.805,6.029,13.2974,4.59990,2470.053,2019-12-05T05:51:03Z
2019-12-05T03:53:37Z,42.805,6.029,13.2968,4.59991,2470.053,2019-12-05T05:54:06Z
2019-12-05T03:56:40Z,42.805,6.029,13.2967,4.59998,2470.053,2019-12-05T05:57:09Z
2019-12-05T03:59:43Z,42.805,6.029,13.2976,4.59994,2470.053,2019-12-05T06:00:13Z
2019-12-05T04:02:47Z,42.805,6.029,13.2969,4.59996,2470.087,2019-12-05T06:03:16Z
2019-12-05T04:05:50Z,42.805,6.029,13.2967,4.60015,2470.03,2019-12-05T06:06:19Z
2019-12-05T04:08:53Z,42.805,6.029,13.2967,4.59991,2470.04,2019-12-05T06:09:22Z
2019-12-05T04:11:56Z,42.805,6.029,13.2980,4.59993,2470.04,2019-12-05T06:12:25Z
2019-12-05T04:14:59Z,42.805,6.029,13.2978,4.59991,2470.017,2019-12-05T06:15:29Z
2019-12-05T04:18:02Z,42.805,6.029,13.2967,4.60001,2470.017,2019-12-05T06:18:32Z
2019-12-05T04:21:06Z,42.805,6.029,13.2971,4.60002,2470.053,2019-12-05T06:21:35Z
2019-12-05T04:24:09Z,42.805,6.029,13.2967,4.59999,2470.03,2019-12-05T06:24:38Z
2019-12-05T04:27:12Z,42.805,6.029,13.2968,4.59994,2470.04,2019-12-05T06:27:42Z
2019-12-05T04:30:16Z,42.805,6.029,13.2973,4.59997,2470.077,2019-12-05T06:30:45Z
2019-12-05T04:33:19Z,42.805,6.029,13.2970,4.59996,2470.03,2019-12-05T06:33:48Z
2019-12-05T04:36:22Z,42.805,6.029,13.2971,4.59996,2470.04,2019-12-05T06:36:51Z
2019-12-05T04:39:25Z,42.805,6.029,13.2977,4.60015,2470.04,2019-12-05T06:39:54Z
2019-12-05T04:42:28Z,42.805,6.029,13.2974,4.60014,2470.017,2019-12-05T06:42:58Z
2019-12-05T04:45:32Z,42.805,6.029,13.2974,4.60029,2469.993,2019-12-05T06:46:01Z
2019-12-05T04:48:35Z,42.805,6.029,13.2964,4.59993,2469.993,2019-12-05T06:49:04Z
2019-12-05T04:51:38Z,42.805,6.029,13.2976,4.60011,2470.017,2019-12-05T06:52:07Z
2019-12-05T04:54:41Z,42.805,6.029,13.2974,4.60008,2470.03,2019-12-05T06:55:10Z
2019-12-05T04:57:44Z,42.805,6.029,13.2971,4.60007,2470.053,2019-12-05T06:58:14Z
2019-12-05T05:00:47Z,42.805,6.029,13.2977,4.59996,2470.017,2019-12-05T07:01:17Z
2019-12-05T05:03:51Z,42.805,6.029,13.2970,4.59996,2470.04,2019-12-05T07:04:20Z
2019-12-05T05:06:54Z,42.805,6.029,13.2969,4.59994,2470.04,2019-12-05T07:07:23Z
2019-12-05T05:09:57Z,42.805,6.029,13.2966,4.59997,2470.04,2019-12-05T07:10:26Z
2019-12-05T05:13:00Z,42.805,6.029,13.2971,4.59993,2470.063,2019-12-05T07:13:30Z
2019-12-05T05:16:03Z,42.805,6.029,13.2976,4.59991,2470.03,2019-12-05T07:16:33Z
2019-12-05T05:19:07Z,42.805,6.029,13.2970,4.59995,2470.04,2019-12-05T07:19:36Z
2019-12-05T05:22:10Z,42.805,6.029,13.2967,4.59993,2470.017,2019-12-05T07:22:39Z
2019-12-05T05:25:13Z,42.805,6.029,13.2979,4.59985,2470.017,2019-12-05T07:25:42Z
2019-12-05T05:28:16Z,42.805,6.029,13.2965,4.59990,2470.053,2019-12-05T07:28:46Z
2019-12-05T05:31:20Z,42.805,6.029,13.2968,4.60014,2470.017,2019-12-05T07:31:49Z
2019-12-05T05:34:23Z,42.805,6.029,13.2966,4.59988,2470.04,2019-12-05T07:34:52Z
2019-12-05T05:37:26Z,42.805,6.029,13.2966,4.59991,2470.007,2019-12-05T07:37:55Z
2019-12-05T05:40:29Z,42.805,6.029,13.2967,4.59995,2470.03,2019-12-05T07:40:58Z
2019-12-05T05:43:32Z,42.805,6.029,13.2975,4.60014,2470.03,2019-12-05T07:44:02Z
2019-12-05T05:46:35Z,42.805,6.029,13.2967,4.60000,2469.993,2019-12-05T07:47:05Z
2019-12-05T05:49:39Z,42.805,6.029,13.2971,4.59985,2470.03,2019-12-05T07:50:08Z
2019-12-05T05:52:42Z,42.805,6.029,13.2966,4.59991,2470.04,2019-12-05T07:53:11Z
2019-12-05T05:55:45Z,42.805,6.029,13.2966,4.60007,2470.053,2019-12-05T07:56:14Z
2019-12-05T05:58:48Z,42.805,6.029,13.2970,4.60001,2470.007,2019-12-05T07:59:17Z
2019-12-05T06:01:51Z,42.805,6.029,13.2967,4.59993,2470.007,2019-12-05T08:02:21Z
2019-12-05T06:04:55Z,42.805,6.029,13.2963,4.60001,2470.007,2019-12-05T08:05:24Z
2019-12-05T06:07:58Z,42.805,6.029,13.2964,4.59979,2470.03,2019-12-05T08:08:27Z
2019-12-05T06:11:01Z,42.805,6.029,13.2974,4.60013,2469.993,2019-12-05T08:11:30Z
2019-12-05T06:14:04Z,42.805,6.029,13.2979,4.60009,2470.03,2019-12-05T08:14:33Z
2019-12-05T06:17:07Z,42.805,6.029,13.2971,4.59994,2469.993,2019-12-05T08:17:37Z
2019-12-05T06:20:11Z,42.805,6.029,13.2967,4.59992,2470.04,2019-12-05T08:20:40Z
2019-12-05T06:23:14Z,42.805,6.029,13.2970,4.59996,2469.993,2019-12-05T08:23:43Z
2019-12-05T06:26:17Z,42.805,6.029,13.2967,4.59997,2470.007,2019-12-05T08:26:47Z
2019-12-05T06:29:21Z,42.805,6.029,13.2974,4.59993,2470.007,2019-12-05T08:29:50Z
2019-12-05T06:32:24Z,42.805,6.029,13.2971,4.60009,2470.017,2019-12-05T08:32:53Z
2019-12-05T06:35:27Z,42.805,6.029,13.2970,4.59986,2469.993,2019-12-05T08:35:56Z
2019-12-05T06:38:30Z,42.805,6.029,13.2977,4.59999,2470.03,2019-12-05T08:38:59Z
2019-12-05T06:41:33Z,42.805,6.029,13.2982,4.60019,2470.017,2019-12-05T08:42:03Z
2019-12-05T06:44:36Z,42.805,6.029,13.2967,4.59999,2470.017,2019-12-05T08:45:06Z
2019-12-05T06:47:40Z,42.805,6.029,13.2971,4.59987,2470.017,2019-12-05T08:48:09Z
2019-12-05T06:50:43Z,42.805,6.029,13.2971,4.59995,2469.993,2019-12-05T08:51:12Z
2019-12-05T06:53:46Z,42.805,6.029,13.2976,4.60022,2469.947,2019-12-05T08:54:15Z
2019-12-05T06:56:49Z,42.805,6.029,13.2971,4.59994,2470.007,2019-12-05T08:57:19Z
2019-12-05T06:59:53Z,42.805,6.029,13.2966,4.59987,2469.993,2019-12-05T09:00:22Z
2019-12-05T07:02:56Z,42.805,6.029,13.2968,4.59978,2469.993,2019-12-05T09:03:25Z
2019-12-05T07:05:59Z,42.805,6.029,13.2964,4.59997,2470.017,2019-12-05T09:06:28Z
2019-12-05T07:09:02Z,42.805,6.029,13.2967,4.59982,2469.993,2019-12-05T09:09:31Z
2019-12-05T07:12:05Z,42.805,6.029,13.2974,4.59991,2470.007,2019-12-05T09:12:35Z
2019-12-05T07:15:09Z,42.805,6.029,13.2972,4.59995,2469.984,2019-12-05T09:15:38Z
2019-12-05T07:18:12Z,42.805,6.029,13.2975,4.60018,2470.03,2019-12-05T09:18:41Z
2019-12-05T07:21:15Z,42.805,6.029,13.2976,4.59981,2469.97,2019-12-05T09:21:44Z
2019-12-05T07:24:18Z,42.805,6.029,13.2973,4.60000,2470.03,2019-12-05T09:24:47Z
2019-12-05T07:27:21Z,42.805,6.029,13.2965,4.59986,2470.017,2019-12-05T09:27:51Z
2019-12-05T07:30:25Z,42.805,6.029,13.2965,4.59989,2469.984,2019-12-05T09:30:54Z
2019-12-05T07:33:28Z,42.805,6.029,13.2977,4.59992,2469.993,2019-12-05T09:33:57Z
2019-12-05T07:36:31Z,42.805,6.029,13.2965,4.59996,2470.007,2019-12-05T09:37:00Z
2019-12-05T07:39:34Z,42.805,6.029,13.2978,4.59996,2469.984,2019-12-05T09:40:03Z
2019-12-05T07:42:37Z,42.805,6.029,13.2975,4.59996,2469.993,2019-12-05T09:43:07Z
2019-12-05T07:45:41Z,42.805,6.029,13.2963,4.59976,2469.993,2019-12-05T09:46:10Z
2019-12-05T07:48:44Z,42.805,6.029,13.2970,4.59988,2469.993,2019-12-05T09:49:13Z
2019-12-05T07:51:47Z,42.805,6.029,13.2981,4.60001,2469.993,2019-12-05T09:52:16Z
2019-12-05T07:54:50Z,42.805,6.029,13.2977,4.60004,2469.993,2019-12-05T09:55:19Z
2019-12-05T07:57:53Z,42.805,6.029,13.2968,4.59992,2469.993,2019-12-05T09:58:23Z
2019-12-05T08:00:57Z,42.805,6.029,13.2968,4.59984,2470.03,2019-12-05T10:01:26Z
2019-12-05T08:04:00Z,42.805,6.029,13.2976,4.59998,2470.007,2019-12-05T10:04:29Z
2019-12-05T08:07:03Z,42.805,6.029,13.2968,4.60009,2469.984,2019-12-05T10:07:32Z
2019-12-05T08:10:06Z,42.805,6.029,13.2967,4.59995,2469.993,2019-12-05T10:10:35Z
2019-12-05T08:13:09Z,42.805,6.029,13.2965,4.59980,2470.03,2019-12-05T10:13:39Z
2019-12-05T08:16:13Z,42.805,6.029,13.2967,4.59988,2470.017,2019-12-05T10:16:42Z
2019-12-05T08:19:16Z,42.805,6.029,13.2964,4.59977,2470.007,2019-12-05T10:19:45Z
2019-12-05T08:22:19Z,42.805,6.029,13.2972,4.59991,2470.007,2019-12-05T10:22:48Z
2019-12-05T08:25:22Z,42.805,6.029,13.2975,4.60004,2470.017,2019-12-05T10:25:51Z
2019-12-05T08:28:25Z,42.805,6.029,13.2970,4.59996,2469.993,2019-12-05T10:28:55Z
2019-12-05T08:31:29Z,42.805,6.029,13.2975,4.60003,2470.007,2019-12-05T10:31:58Z
2019-12-05T08:34:32Z,42.805,6.029,13.2972,4.59999,2470.007,2019-12-05T10:35:01Z
2019-12-05T08:37:35Z,42.805,6.029,13.2981,4.60011,2469.984,2019-12-05T10:38:04Z
2019-12-05T08:40:38Z,42.805,6.029,13.2985,4.59995,2469.993,2019-12-05T10:41:08Z
2019-12-05T08:43:41Z,42.805,6.029,13.2967,4.59996,2470.017,2019-12-05T10:44:11Z
2019-12-05T08:46:45Z,42.805,6.029,13.2962,4.60010,2469.993,2019-12-05T10:47:14Z
2019-12-05T08:49:48Z,42.805,6.029,13.2971,4.59987,2469.993,2019-12-05T10:50:17Z
2019-12-05T08:52:51Z,42.805,6.029,13.2971,4.59981,2470.03,2019-12-05T10:53:20Z
2019-12-05T08:55:54Z,42.805,6.029,13.2967,4.59988,2470.017,2019-12-05T10:56:23Z
2019-12-05T08:58:57Z,42.805,6.029,13.2974,4.59993,2469.993,2019-12-05T10:59:27Z
2019-12-05T09:02:01Z,42.805,6.029,13.2962,4.59983,2470.007,2019-12-05T11:02:30Z
2019-12-05T09:05:04Z,42.805,6.029,13.2970,4.59986,2469.993,2019-12-05T11:05:33Z
2019-12-05T09:08:07Z,42.805,6.029,13.2962,4.59973,2470.007,2019-12-05T11:08:36Z
2019-12-05T09:11:10Z,42.805,6.029,13.2967,4.59984,2470.04,2019-12-05T11:11:39Z
2019-12-05T09:14:13Z,42.805,6.029,13.2966,4.59980,2470.03,2019-12-05T11:14:43Z
2019-12-05T09:17:16Z,42.805,6.029,13.2965,4.59975,2470.03,2019-12-05T11:17:46Z
2019-12-05T09:20:20Z,42.805,6.029,13.2967,4.59976,2470.017,2019-12-05T11:20:49Z
2019-12-05T09:23:23Z,42.805,6.029,13.2968,4.59991,2469.993,2019-12-05T11:23:52Z
2019-12-05T09:26:26Z,42.805,6.029,13.2969,4.59982,2470.03,2019-12-05T11:26:55Z
2019-12-05T09:29:29Z,42.805,6.029,13.2965,4.59983,2469.984,2019-12-05T11:29:59Z
2019-12-05T09:32:32Z,42.805,6.029,13.2966,4.59974,2469.993,2019-12-05T11:33:02Z
2019-12-05T09:35:36Z,42.805,6.029,13.2964,4.59982,2470.03,2019-12-05T11:36:05Z
2019-12-05T09:38:39Z,42.805,6.029,13.2969,4.59981,2469.993,2019-12-05T11:39:08Z
2019-12-05T09:41:42Z,42.805,6.029,13.2969,4.59978,2470.03,2019-12-05T11:42:11Z
2019-12-05T09:44:45Z,42.805,6.029,13.2975,4.60019,2470.03,2019-12-05T11:45:15Z
2019-12-05T09:47:48Z,42.805,6.029,13.2994,4.60000,2470.03,2019-12-05T11:48:18Z
2019-12-05T09:50:52Z,42.805,6.029,13.2979,4.60010,2470.03,2019-12-05T11:51:21Z
2019-12-05T09:53:55Z,42.805,6.029,13.2967,4.60001,2470.007,2019-12-05T11:54:24Z
2019-12-05T09:56:58Z,42.805,6.029,13.2966,4.59994,2470.007,2019-12-05T11:57:27Z
2019-12-05T10:00:01Z,42.805,6.029,13.2977,4.59995,2469.993,2019-12-05T12:00:30Z
2019-12-05T10:03:04Z,42.805,6.029,13.2970,4.60014,2470.017,2019-12-05T12:03:34Z
2019-12-05T10:06:07Z,42.805,6.029,13.2980,4.60002,2470.017,2019-12-05T12:06:37Z
2019-12-05T10:09:11Z,42.805,6.029,13.2973,4.60002,2470.017,2019-12-05T12:09:40Z
2019-12-05T10:12:14Z,42.805,6.029,13.2971,4.59984,2470.017,2019-12-05T12:12:43Z
2019-12-05T10:15:17Z,42.805,6.029,13.2967,4.59978,2470.007,2019-12-05T12:15:46Z
2019-12-05T10:18:20Z,42.805,6.029,13.2974,4.59985,2470.03,2019-12-05T12:18:50Z
2019-12-05T10:21:23Z,42.805,6.029,13.2968,4.59979,2470.04,2019-12-05T12:21:53Z
2019-12-05T10:24:27Z,42.805,6.029,13.2970,4.59982,2470.017,2019-12-05T12:24:56Z
2019-12-05T10:27:30Z,42.805,6.029,13.2973,4.59991,2469.993,2019-12-05T12:27:59Z
2019-12-05T10:30:33Z,42.805,6.029,13.2967,4.59986,2470.063,2019-12-05T12:31:02Z
2019-12-05T10:33:36Z,42.805,6.029,13.2969,4.60001,2470.03,2019-12-05T12:34:06Z
2019-12-05T10:36:40Z,42.805,6.029,13.2968,4.59980,2470.017,2019-12-05T12:37:09Z
2019-12-05T10:39:43Z,42.805,6.029,13.2968,4.59984,2470.053,2019-12-05T12:40:12Z
2019-12-05T10:42:46Z,42.805,6.029,13.2976,4.59977,2470.053,2019-12-05T12:43:15Z
2019-12-05T10:45:49Z,42.805,6.029,13.2966,4.60011,2470.04,2019-12-05T12:46:18Z
2019-12-05T10:48:52Z,42.805,6.029,13.2967,4.59988,2470.007,2019-12-05T12:49:22Z
2019-12-05T10:51:55Z,42.805,6.029,13.2967,4.59982,2470.053,2019-12-05T12:52:25Z
2019-12-05T10:54:59Z,42.805,6.029,13.2967,4.59981,2470.017,2019-12-05T12:55:28Z
2019-12-05T10:58:02Z,42.805,6.029,13.2964,4.59981,2470.04,2019-12-05T12:58:31Z
2019-12-05T11:01:05Z,42.805,6.029,13.2967,4.59991,2470.04,2019-12-05T13:01:34Z
2019-12-05T11:04:08Z,42.805,6.029,13.2967,4.59987,2470.04,2019-12-05T13:04:38Z
2019-12-05T11:07:11Z,42.805,6.029,13.2978,4.59978,2470.053,2019-12-05T13:07:41Z
2019-12-05T11:10:15Z,42.805,6.029,13.2970,4.59987,2470.063,2019-12-05T13:10:44Z
2019-12-05T11:13:18Z,42.805,6.029,13.2966,4.59975,2470.063,2019-12-05T13:13:47Z
2019-12-05T11:16:21Z,42.805,6.029,13.2969,4.60016,2470.04,2019-12-05T13:16:50Z
2019-12-05T11:19:24Z,42.805,6.029,13.2965,4.60014,2470.053,2019-12-05T13:19:54Z
2019-12-05T11:22:27Z,42.805,6.029,13.2984,4.60010,2470.04,2019-12-05T13:22:57Z
2019-12-05T11:25:31Z,42.805,6.029,13.2978,4.59993,2469.993,2019-12-05T13:26:00Z
2019-12-05T11:28:34Z,42.805,6.029,13.2968,4.59993,2470.04,2019-12-05T13:29:03Z
2019-12-05T11:31:37Z,42.805,6.029,13.2980,4.60020,2470.04,2019-12-05T13:32:06Z
2019-12-05T11:34:40Z,42.805,6.029,13.2986,4.60004,2470.063,2019-12-05T13:35:10Z
2019-12-05T11:37:43Z,42.805,6.029,13.2968,4.60014,2470.063,2019-12-05T13:38:13Z
2019-12-05T11:40:47Z,42.805,6.029,13.2981,4.60006,2470.077,2019-12-05T13:41:16Z
2019-12-05T11:43:50Z,42.805,6.029,13.2982,4.60015,2470.04,2019-12-05T13:44:19Z
2019-12-05T11:46:53Z,42.805,6.029,13.2977,4.60021,2470.04,2019-12-05T13:47:22Z
2019-12-05T11:49:56Z,42.805,6.029,13.2982,4.60026,2470.063,2019-12-05T13:50:26Z
2019-12-05T11:52:59Z,42.805,6.029,13.2971,4.60004,2470.063,2019-12-05T13:53:29Z
2019-12-05T11:56:03Z,42.805,6.029,13.2977,4.60016,2470.087,2019-12-05T13:56:32Z
2019-12-05T11:59:06Z,42.805,6.029,13.3001,4.60020,2470.063,2019-12-05T13:59:35Z
2019-12-05T12:02:09Z,42.805,6.029,13.3005,4.59999,2470.053,2019-12-05T14:02:38Z
2019-12-05T12:05:12Z,42.805,6.029,13.2984,4.60014,2470.077,2019-12-05T14:05:41Z
2019-12-05T12:08:15Z,42.805,6.029,13.2993,4.60015,2470.077,2019-12-05T14:08:45Z
2019-12-05T12:11:19Z,42.805,6.029,13.3000,4.60035,2470.04,2019-12-05T14:11:48Z
2019-12-05T12:14:22Z,42.805,6.029,13.2993,4.60036,2470.04,2019-12-05T14:14:51Z
2019-12-05T12:17:25Z,42.805,6.029,13.2980,4.60014,2470.087,2019-12-05T14:17:54Z
2019-12-05T12:20:28Z,42.805,6.029,13.2985,4.60022,2470.063,2019-12-05T14:20:57Z
2019-12-05T12:23:31Z,42.805,6.029,13.2992,4.60017,2470.077,2019-12-05T14:24:01Z
2019-12-05T12:26:34Z,42.805,6.029,13.2998,4.59975,2470.124,2019-12-05T14:27:04Z
2019-12-05T12:29:38Z,42.805,6.029,13.2996,4.60012,2470.077,2019-12-05T14:30:07Z
2019-12-05T12:32:41Z,42.805,6.029,13.2986,4.60028,2470.087,2019-12-05T14:33:10Z
2019-12-05T12:35:44Z,42.805,6.029,13.2982,4.60026,2470.1,2019-12-05T14:36:13Z
2019-12-05T12:38:47Z,42.805,6.029,13.2989,4.60020,2470.063,2019-12-05T14:39:17Z
2019-12-05T12:41:51Z,42.805,6.029,13.2986,4.60001,2470.087,2019-12-05T14:42:20Z
2019-12-05T12:44:54Z,42.805,6.029,13.2982,4.59986,2470.1,2019-12-05T14:45:23Z
2019-12-05T12:47:57Z,42.805,6.029,13.2979,4.59984,2470.063,2019-12-05T14:48:26Z
2019-12-05T12:51:00Z,42.805,6.029,13.2984,4.59992,2470.063,2019-12-05T14:51:29Z
2019-12-05T12:54:03Z,42.805,6.029,13.2982,4.59996,2470.063,2019-12-05T14:54:33Z
2019-12-05T12:57:06Z,42.805,6.029,13.2973,4.59989,2470.087,2019-12-05T14:57:36Z
2019-12-05T13:00:10Z,42.805,6.029,13.2986,4.59976,2470.087,2019-12-05T15:00:39Z
2019-12-05T13:03:13Z,42.805,6.029,13.2978,4.59987,2470.087,2019-12-05T15:03:42Z
2019-12-05T13:06:16Z,42.805,6.029,13.2979,4.60000,2470.124,2019-12-05T15:06:45Z
2019-12-05T13:09:19Z,42.805,6.029,13.2998,4.59988,2470.063,2019-12-05T15:09:49Z
2019-12-05T13:12:22Z,42.805,6.029,13.3025,4.59991,2470.11,2019-12-05T15:12:52Z
2019-12-05T13:15:26Z,42.805,6.029,13.2968,4.59983,2470.124,2019-12-05T15:15:55Z
2019-12-05T13:18:29Z,42.805,6.029,13.2982,4.59981,2470.114,2019-12-05T15:18:58Z
2019-12-05T13:21:32Z,42.805,6.029,13.2976,4.59981,2470.124,2019-12-05T15:22:01Z
2019-12-05T13:24:35Z,42.805,6.029,13.2974,4.59987,2470.087,2019-12-05T15:25:05Z
2019-12-05T13:27:38Z,42.805,6.029,13.2985,4.59995,2470.077,2019-12-05T15:28:08Z
2019-12-05T13:30:42Z,42.805,6.029,13.2977,4.59993,2470.1,2019-12-05T15:31:11Z
2019-12-05T13:33:45Z,42.805,6.029,13.2984,4.59994,2470.077,2019-12-05T15:34:14Z
2019-12-05T13:36:48Z,42.805,6.029,13.2992,4.60006,2470.11,2019-12-05T15:37:17Z
2019-12-05T13:39:51Z,42.805,6.029,13.2985,4.59990,2470.11,2019-12-05T15:40:21Z
2019-12-05T13:42:54Z,42.805,6.029,13.2970,4.59991,2470.1,2019-12-05T15:43:24Z
2019-12-05T13:45:58Z,42.805,6.029,13.2982,4.59976,2470.119,2019-12-05T15:46:27Z
2019-12-05T13:49:01Z,42.805,6.029,13.2972,4.59973,2470.133,2019-12-05T15:49:30Z
2019-12-05T13:52:04Z,42.805,6.029,13.2971,4.59978,2470.124,2019-12-05T15:52:33Z
2019-12-05T13:55:07Z,42.805,6.029,13.2974,4.59995,2470.124,2019-12-05T15:55:37Z
2019-12-05T13:58:10Z,42.805,6.029,13.2974,4.59988,2470.11,2019-12-05T15:58:40Z
2019-12-05T14:01:14Z,42.805,6.029,13.2981,4.59976,2470.11,2019-12-05T16:01:43Z
2019-12-05T14:04:17Z,42.805,6.029,13.2968,4.59991,2470.087,2019-12-05T16:04:46Z
2019-12-05T14:07:20Z,42.805,6.029,13.2974,4.59972,2470.1,2019-12-05T16:07:49Z
2019-12-05T14:10:23Z,42.805,6.029,13.2976,4.59976,2470.147,2019-12-05T16:10:52Z
2019-12-05T14:13:26Z,42.805,6.029,13.2971,4.59976,2470.124,2019-12-05T16:13:56Z
2019-12-05T14:16:29Z,42.805,6.029,13.2982,4.59983,2470.11,2019-12-05T16:16:59Z
2019-12-05T14:19:33Z,42.805,6.029,13.2977,4.59978,2470.1,2019-12-05T16:20:02Z
2019-12-05T14:22:36Z,42.805,6.029,13.2975,4.59990,2470.124,2019-12-05T16:23:05Z
2019-12-05T14:25:39Z,42.805,6.029,13.2979,4.59976,2470.077,2019-12-05T16:26:08Z
2019-12-05T14:28:42Z,42.805,6.029,13.2969,4.59983,2470.124,2019-12-05T16:29:12Z
2019-12-05T14:31:46Z,42.805,6.029,13.2976,4.59976,2470.124,2019-12-05T16:32:15Z
2019-12-05T14:34:49Z,42.805,6.029,13.2975,4.59973,2470.087,2019-12-05T16:35:18Z
2019-12-05T14:37:52Z,42.805,6.029,13.2983,4.59997,2470.11,2019-12-05T16:38:21Z
2019-12-05T14:40:55Z,42.805,6.029,13.2979,4.59978,2470.087,2019-12-05T16:41:25Z
2019-12-05T14:43:58Z,42.805,6.029,13.2982,4.59983,2470.124,2019-12-05T16:44:28Z
2019-12-05T14:47:02Z,42.805,6.029,13.2982,4.59983,2470.124,2019-12-05T16:47:31Z
2019-12-05T14:50:05Z,42.805,6.029,13.2968,4.59990,2470.124,2019-12-05T16:50:34Z
2019-12-05T14:53:08Z,42.805,6.029,13.2976,4.59986,2470.124,2019-12-05T16:53:37Z
2019-12-05T14:56:11Z,42.805,6.029,13.2982,4.59978,2470.124,2019-12-05T16:56:41Z
2019-12-05T14:59:14Z,42.805,6.029,13.2968,4.59991,2470.077,2019-12-05T16:59:44Z
2019-12-05T15:02:18Z,42.805,6.029,13.2976,4.59994,2470.11,2019-12-05T17:02:47Z